星链-11152 (STARLINK-11152)

导读 | 豆包AI

STARLINK-11152是美国太空探索技术公司(SpaceX)“星链”(Starlink)项目中的卫星,于2024年7月3日发射,属于星链星座的组网补充卫星,旨在为全球提供高速互联网服务,尤其覆盖偏远地区和网络基础设施薄弱区域,延续星链低轨卫星星座的部署进程,强化全球卫星互联网的覆盖容量与服务能力。

基本信息
目录编号:
60194
目录名称:
STARLINK-11152
国际标识:
2024-124M
轨道中心:
EARTH
卫星名称:
星链-11152 (STARLINK-11152)
卫星全名:
星链-11152 (STARLINK-11152)
卫星状态:
在轨 (已飞行691 天)
发射日期:
2024-07-03 UTC
国别 :
美国 (US)
星等 :
--
轨道信息
数据来源 国际轨道数据
星历时间: 2026-05-24T08:15:03+0800
1天前
查看轨道信息
半长轴: 6737.83km
偏心率: 0.0001204
轨道倾角: 53.157°
近地点辐角 62.877°
升交点赤经 149.979°
平近点角 297.238°
近地点: 358.881km
远地点: 360.505km
周期: 91.736分钟
每日圈数: 15.697218
详细信息
卫星平台:
Starlink v2.0 mini
运营商:
太空探索技术公司
运营商所在国:
美国
制造商(研发单位):
太空探索技术公司
制造商所在国:
美国
使用方式:
暂无
卫星简介
星链(Starlink)计划是由太空探索技术公司(SpaceX)提出的一个巨型低轨卫星互联网星座项目,计划在2019年至2024年间在太空搭建由约1.2万颗卫星组成的“星链”网络,其中1584颗将部署在地球上空550千米处的近地轨道,并从2020年开始工作。该卫星仍在工作。
2D轨道图
3D轨道图
轨道高度分析图
轨道倾角分析图
轨道综合分析图
查看轨道综合分析图